Location: Les Jeannots
(43.2262°N, 5.5774°E)
Time: 16:47:51
(UTC+00:00)

OAO 2 Rocket - Pass Details

Date: 05 July 2020
Orbit: 676 x 746 km, 35.0° (Epoch: 12 August)

Event Time Altitude Azimuth Distance (km) Brightness Sun altitude
Rises 21:41:01 0° 255° (WSW) 3,169 6.9 -18.4°
Reaches altitude 10° 21:43:38 10° 247° (WSW) 2,249 6.0 -18.7°
Maximum altitude 21:48:23 34° 183° (S) 1,217 4.1 -19.1°
Enters shadow 21:48:29 34° 181° (S) 1,217 4.1 -19.1°
